Regional Weather Roundup
Issued by NWS

Home | Current Version | Previous Version | Text Only | Print | Product List | Glossary On
Versions: 1 2 3 4 5 6 7 8 9 10 11 12 13 14 15 16 17 18 19 20 21 22 23 24 25 26 27 28 29 30 31 32 33 34 35 36 37 38 39 40 41 42 43 44 45 46 47 48 49 50
000
ASUS43 KDTX 200310
RWRMI
MICHIGAN HOURLY REGIONAL WEATHER ROUNDUP
NATIONAL WEATHER SERVICE DETROIT/PONTIAC MI
1100 PM EDT THU OCT 19 2017

NOTE: "FAIR" INDICATES FEW OR NO CLOUDS BELOW 12,000 FEET WITH NO
SIGNIFICANT WEATHER AND/OR OBSTRUCTION TO VISIBILITY.

MIZ047>049-052>055-059>063-066>070-074>076-081>083-200400-
SOUTHEAST LOWER MICHIGAN

CITY           SKY/WX    TMP DP  RH WIND       PRES   REMARKS
ADRIAN         CLEAR     47  33  58 NW5       30.20R
ALMA           CLOUDY    48  32  54 SW6       30.18R
ANN ARBOR      PTCLDY    40  37  89 CALM      30.18R
BAD AXE        CLOUDY    45  32  59 CALM      30.15S
CARO           CLOUDY    42  35  75 CALM      30.15S
DETROIT CITY   CLOUDY    55  33  43 W3        30.17R
DETROIT        CLOUDY    55  33  43 NW5       30.18R
FLINT          CLOUDY    49  35  58 SW7       30.18R
GROSSE ILE     CLOUDY    49  39  68 NW3       30.17R
HILLSDALE      CLEAR     48  32  53 CALM      30.19S
HOWELL         CLEAR     49  34  54 CALM      30.18R

CITY           SKY/WX    TMP DP  RH WIND       PRES   REMARKS
JACKSON        CLEAR     46  36  68 SW5       30.19R
LAMBERTVILLE   CLEAR     48  39  69 CALM      30.19R
LANSING        CLEAR     50  32  50 W5        30.19R
LAPEER         FAIR      42  36  79 CALM      30.17R
MASON          CLEAR     51  33  49 CALM      30.19R
MONROE         CLEAR     47  38  68 CALM      30.17S
MT. CLEMENS    PTCLDY    53  33  46 W6        30.14S
PONTIAC        PTCLDY    50  36  58 CALM      30.17R
PORT HOPE        N/A     55  35  47 W6        30.12R
PORT HURON     CLOUDY    45  36  70 CALM      30.16R
TRI CITIES     CLOUDY    52  33  48 SW7       30.17R
MIDLAND        FAIR      42  33  71 CALM      30.16R
TROY           CLOUDY    55  32  42 W3        30.19R
SAGINAW HB     CLOUDY    50  32  50 SW5       30.16R
$$
MIZ043>046-050>051-056>058-064>065-071>073-077>080-200400-
SOUTHWEST LOWER MICHIGAN

CITY           SKY/WX    TMP DP  RH WIND       PRES   REMARKS
BATTLE CREEK   CLEAR     48  36  63 SW5       30.20S
BENTON HARBOR  CLEAR     43  40  89 E3        30.19S
BIG RAPIDS     CLEAR     43  34  71 CALM      30.16R
COLDWATER      CLEAR     45  35  67 CALM      30.20S
FREMONT        FAIR      45  40  84 SE3       30.17R
HOLLAND        CLEAR     48  43  82 S3        30.18S
GRAND RAPIDS   PTCLDY    48  40  73 SW3       30.18S
IONIA          FAIR      50  34  55 W6        30.17S
KALAMAZOO      CLEAR     46  34  62 CALM      30.20S
LUDINGTON      CLEAR     46  41  85 CALM      30.14S
MARSHALL       CLEAR     47  33  57 CALM      30.19S
MOUNT PLEASANT CLOUDY    51  34  53 SW5       30.16S
MUSKEGON       PTCLDY    49  43  80 CALM      30.17R
SOUTH HAVEN    CLEAR     44  40  86 CALM      30.19S
$$
MIZ016>042-200400-
NORTHERN LOWER MICHIGAN

CITY           SKY/WX    TMP DP  RH WIND       PRES   REMARKS
ALPENA         CLOUDY    52  34  50 SW6       30.10S
BEAVER ISLAND  CLOUDY    57  49  76 SW8       30.07S
BELLAIRE       PTCLDY    40  38  91 CALM      30.13R
CADILLAC       CLOUDY    47  32  55 SW6       30.15R
CHARLEVOIX     CLEAR     54  42  63 SW7       30.13R
FRANKFORT      CLEAR     55  48  75 CALM      30.12S
GAYLORD        CLEAR     46  30  53 SW5       30.12R
GRAYLING       CLOUDY    46  31  54 CALM      30.14S
HARBOR SPRINGS CLOUDY    53  40  60 CALM      30.10R
HOUGHTON LAKE  CLOUDY    47  34  60 CALM      30.15R
MANISTEE       CLEAR     42  38  85 E5        30.13S
OSCODA         CLOUDY    45  28  52 SW8       30.12R
PELLSTON       PTCLDY    55  39  54 W9        30.09R
ROGERS CITY    PTCLDY    52  35  51 W8        30.09S
TRAVERSE CITY  CLEAR     51  36  56 CALM      30.11R
$$
MIZ007>008-015-200400-
EASTERN UPPER MICHIGAN

CITY           SKY/WX    TMP DP  RH WIND       PRES   REMARKS
KINROSS        CLOUDY    49  40  71 SW5       30.06R
MACKINAC ISLAN CLOUDY    58  49  72 SW13G22   30.06S
NEWBERRY       CLOUDY    49  41  73 SW9       30.04S
S. S. MARIE    MOCLDY    49  30  48 SW3       30.05R
MUNISING         N/A     53  34  48 SW7       30.01S
$$
MIZ004>006-011>014-085-200400-
CENTRAL UPPER MICHIGAN

CITY           SKY/WX    TMP DP  RH WIND       PRES   REMARKS
MANISTIQUE     PTCLDY    54  48  81 SW7       30.05S
ESCANABA       CLOUDY    55  41  59 SW7       30.04S
MENOMINEE      CLEAR     54  42  64 S5        30.07S
SAWYER-GWINN   CLOUDY    51  32  48 S8        30.03R
$$
MIZ001>003-009>011-084-200400-
WESTERN UPPER MICHIGAN

CITY           SKY/WX    TMP DP  RH WIND       PRES   REMARKS
IRON MOUNTAIN  CLOUDY    52  30  43 S7        30.02S
HOUGHTON       CLEAR     52  31  44 S6        29.96R
COPPER HARBOR    N/A     52  34  50 W8        29.95S
IRONWOOD       CLEAR     59  34  39 VRB7G20   29.96S
$$

ABBREVIATIONS USED IN REMARKS
   TC - TEMPERATURE IN CELSIUS
  WCI - WIND CHILL INDEX
   HX - HEAT INDEX
  VSB - VISIBILITY





USA.gov is the U.S. government's official web portal to all federal, state and local government web resources and services.